EW9345 Weather Reports


time (UTC)temp
C
wind
direction
speed
KPH
gust
KPH
rain 1hr
cm
rain 24hr
cm
rain mn
cm
humidity
%
barometer
mb
20260506143219 21 230 0.0 0.0 0.00 0.00 0.00 63 1007.2
20260506142718 21 122 0.0 0.0 0.00 0.00 0.00 63 1007.3
20260506142217 21 221 0.0 0.0 0.00 0.00 0.00 64 1007.4
20260506141717 21 203 0.0 0.0 0.00 0.00 0.00 63 1007.5
20260506141602 21 187 0.0 0.0 0.00 0.00 0.00 64 1007.4
20260506141556 21 228 0.0 0.0 0.00 0.00 0.00 63 1007.4
20260506140209 21 212 0.0 0.0 0.00 0.00 0.00 64 1007.4
20260506135659 21 273 0.0 0.0 0.00 0.00 0.00 64 1007.4
20260506135152 20 207 0.0 0.0 0.00 0.00 0.00 64 1007.5
20260506134646 20 156 0.0 0.0 0.00 0.00 0.00 64 1007.5
20260506134136 20 165 0.0 0.0 0.00 0.00 0.00 64 1007.6
20260506133631 20 229 0.0 0.0 0.00 0.00 0.00 64 1007.7
20260506133124 20 225 0.0 0.0 0.00 0.00 0.00 64 1007.5
20260506132614 20 61 0.0 0.0 0.00 0.00 0.00 65 1007.5
20260506132401 20 167 0.0 0.0 0.00 0.00 0.00 65 1007.6
20260506131854 20 186 0.0 0.0 0.00 0.00 0.00 66 1007.7
20260506131053 20 231 0.0 0.0 0.00 0.00 0.00 66 1007.5
20260506130546 20 136 0.0 0.0 0.00 0.00 0.00 66 1007.6
20260506130335 20 212 0.0 0.0 0.00 0.00 0.00 67 1007.3
20260506125530 20 190 0.0 0.0 0.00 0.00 0.00 67 1007.3
20260506125024 20 170 0.0 0.0 0.00 0.00 0.00 67 1007.2
20260506124518 20 248 0.0 0.0 0.00 0.00 0.00 68 1007.3
20260506124301 19 192 0.0 0.0 0.00 0.00 0.00 68 1007.3
20260506123502 19 350 0.0 0.0 0.00 0.00 0.00 69 1007.3
20260506122957 19 169 0.0 0.0 0.00 0.00 0.00 69 1007.4
20260506122446 19 95 0.0 0.0 0.00 0.00 0.00 69 1007.5
20260506121940 19 220 0.0 0.0 0.00 0.00 0.00 69 1007.6
20260506121729 19 209 0.0 0.0 0.00 0.00 0.00 69 1007.5
20260506120924 19 112 0.0 0.0 0.00 0.00 0.00 69 1007.6
20260506120418 19 150 0.0 0.0 0.00 0.00 0.00 69 1007.8
20260506115912 19 158 0.0 0.0 0.00 0.00 0.00 69 1007.9
20260506115406 19 211 0.0 0.0 0.00 0.00 0.00 70 1007.9
20260506114903 19 184 0.0 0.0 0.00 0.00 0.00 71 1007.9
20260506114403 19 146 0.0 0.0 0.00 0.00 0.00 71 1007.8
20260506113904 19 193 0.0 0.0 0.00 0.00 0.00 71 1007.9
20260506113402 19 191 0.0 0.0 0.00 0.00 0.00 71 1007.8
20260506112859 18 203 0.0 0.0 0.00 0.00 0.00 72 1007.8
20260506112400 18 162 0.0 0.0 0.00 0.00 0.00 73 1007.9
20260506112158 18 221 0.0 0.0 0.00 0.00 0.00 73 1007.9
20260506111655 18 160 0.0 0.0 0.00 0.00 0.00 73 1007.8
20260506110901 18 231 0.0 0.0 0.00 0.00 0.00 74 1007.7
20260506110356 18 154 0.0 0.0 0.00 0.00 0.00 74 1007.7
20260506105857 18 86 0.0 0.0 0.00 0.00 0.00 74 1007.7
20260506105357 -17 0.0 0.0 0.00 0.00 0.00 1007.6
20260506104858 -17 0.0 0.0 0.00 0.00 0.00 1007.7
20260506104354 -17 0.0 0.0 0.00 0.00 0.00 1007.7
20260506103807 -17 0.0 0.0 0.00 0.00 0.00 1007.7
20260506103252 -17 0.0 0.0 0.00 0.00 0.00 1007.8
20260506102702 -17 0.0 0.0 0.00 0.00 0.00 1007.6
20260506102159 -17 0.0 0.0 0.00 0.00 0.00 1007.6
20260506101656 -17 0.0 0.0 0.00 0.00 0.00 1007.5
20260506101109 -17 0.0 0.0 0.00 0.00 0.00 1007.4
20260506100557 -17 0.0 0.0 0.00 0.00 0.00 1007.4
20260506100223 -17 0.0 0.0 0.00 0.00 0.00 1007.4
20260506095501 -17 0.0 0.0 0.00 0.00 0.00 1007.4
20260506094906 -17 0.0 0.0 0.00 0.00 0.00 1007.4
20260506094352 -17 0.0 0.0 0.00 0.00 0.00 1007.4
20260506093758 -17 0.0 0.0 0.00 0.00 0.00 1007.4
20260506093200 -17 0.0 0.0 0.00 0.00 0.00 1007.4
20260506092927 -17 0.0 0.0 0.00 0.00 0.00 1007.4
20260506092106 -17 0.0 0.0 0.00 0.00 0.00 1007.4
20260506091544 -17 0.0 0.0 0.00 0.00 0.00 1007.5
20260506091001 18 0.0 0.0 0.00 0.00 0.00 73 1007.5
20260506090454 18 197 0.0 0.0 0.00 0.00 0.00 73 1007.5
20260506085905 18 197 0.0 0.0 0.00 0.00 0.00 73 1007.5
20260506085330 18 197 0.0 0.0 0.00 0.00 0.00 73 1007.6
20260506084829 18 200 0.0 0.0 0.00 0.00 0.00 74 1007.6
20260506084330 18 166 0.0 0.0 0.00 0.00 0.00 74 1007.6
20260506083825 18 243 0.0 0.0 0.00 0.00 0.00 74 1007.6
20260506083324 18 167 0.0 0.0 0.00 0.00 0.00 73 1007.7
20260506082825 18 160 0.0 0.0 0.00 0.00 0.00 73 1007.6
20260506082323 18 163 0.0 0.0 0.00 0.00 0.00 73 1007.6
20260506081823 18 106 0.0 0.0 0.00 0.00 0.00 73 1007.7
20260506081622 18 157 0.0 0.0 0.00 0.00 0.00 72 1007.7
20260506080824 18 169 0.0 0.0 0.00 0.00 0.00 72 1007.7
20260506080323 18 131 0.0 0.0 0.00 0.00 0.00 72 1007.7
20260506073306 19 148 0.0 0.0 0.00 0.00 0.00 70 1007.8
20260506072808 19 142 0.0 0.0 0.00 0.00 0.00 70 1007.7
20260506072306 19 114 0.0 0.0 0.00 0.00 0.00 70 1007.6
20260506071806 19 165 0.0 0.0 0.00 0.00 0.00 70 1007.8
20260506071308 19 164 0.0 0.0 0.00 0.00 0.00 69 1007.8
20260506070807 19 122 0.0 0.0 0.00 0.00 0.00 69 1008.0
20260506070307 19 169 0.0 0.0 0.00 0.00 0.00 69 1007.9
20260506062305 19 117 0.0 0.0 0.00 0.00 0.00 67 1007.8
20260506062057 20 153 0.0 0.0 0.00 0.00 0.00 66 1007.9
20260506061303 20 340 0.0 0.0 0.00 0.00 0.00 66 1007.9
20260506060802 20 146 0.0 0.0 0.00 0.00 0.00 66 1007.8
20260506060304 20 194 0.0 0.0 0.00 0.00 0.00 66 1007.8
20260506051305 20 243 0.0 0.0 0.00 0.00 0.00 63 1008.3
20260506050805 20 222 0.0 0.0 0.00 0.00 0.00 63 1008.5
20260506050305 20 206 0.0 0.0 0.00 0.00 0.00 62 1008.4
20260506044854 20 216 0.0 0.0 0.00 0.00 0.00 61 1008.3
20260506044835 20 207 0.0 0.0 0.00 0.00 0.00 61 1008.3
20260506044054 20 158 0.0 0.0 0.00 0.00 0.00 61 1008.3
20260506043302 20 181 0.0 0.0 0.00 0.00 0.00 60 1008.4
20260506042759 20 261 0.0 0.0 0.00 0.00 0.00 60 1008.4
20260506042259 20 195 0.0 0.0 0.00 0.00 0.00 60 1008.4
20260506041759 20 198 0.0 0.0 0.00 0.00 0.00 59 1008.4
20260506041258 21 145 0.0 0.0 0.00 0.00 0.00 59 1008.3
20260506040756 21 202 0.0 0.0 0.00 0.00 0.00 58 1008.3
20260506040601 21 182 0.0 0.0 0.00 0.00 0.00 58 1008.3
20260506035755 21 185 0.0 0.0 0.00 0.00 0.00 58 1008.3
20260506035255 21 162 0.0 0.0 0.00 0.00 0.00 57 1008.2
20260506034752 21 212 0.0 0.0 0.00 0.00 0.00 57 1008.3
20260506034253 21 198 0.0 0.0 0.00 0.00 0.00 56 1008.4
20260506033752 21 221 0.0 0.0 0.00 0.00 0.00 56 1008.4
20260506033253 21 216 0.0 0.0 0.00 0.00 0.00 56 1008.3
20260506032752 21 225 0.0 0.0 0.00 0.00 0.00 55 1008.3
20260506032254 21 193 0.0 0.0 0.00 0.00 0.00 55 1008.3
20260506031751 21 139 0.0 0.0 0.00 0.00 0.00 55 1008.2
20260506031602 21 248 0.0 0.0 0.00 0.00 0.00 54 1008.1
20260506030747 21 190 0.0 0.0 0.00 0.00 0.00 54 1008.2
20260506030242 21 227 0.0 0.0 0.00 0.00 0.00 54 1008.1
20260506025737 22 134 0.0 0.0 0.00 0.00 0.00 54 1008.0
20260506025235 22 195 0.0 0.0 0.00 0.00 0.00 54 1008.0
20260506024735 22 193 0.0 0.0 0.00 0.00 0.00 54 1008.0
20260506024233 22 217 0.0 0.0 0.00 0.00 0.00 53 1008.1
20260506023733 22 184 0.0 0.0 0.00 0.00 0.00 53 1008.2
20260506023528 22 91 0.0 0.0 0.00 0.00 0.00 53 1008.2
20260506022732 22 145 0.0 0.0 0.00 0.00 0.00 53 1008.2
20260506022233 22 198 0.0 0.0 0.00 0.00 0.00 53 1008.1
20260506021733 22 196 0.0 0.0 0.00 0.00 0.00 52 1008.1
20260506021232 22 224 0.0 0.0 0.00 0.00 0.00 52 1008.1
20260506020734 22 222 0.0 0.0 0.00 0.00 0.00 52 1008.1
20260506020233 22 211 0.0 0.0 0.00 0.00 0.00 52 1008.1
20260506015736 22 152 0.0 0.0 0.00 0.00 0.00 51 1008.0
20260506015235 22 206 0.0 0.0 0.00 0.00 0.00 51 1008.1
20260506014730 22 143 0.0 0.0 0.00 0.00 0.00 51 1008.0
20260506014224 22 174 0.0 0.0 0.00 0.00 0.00 51 1008.0
20260506013713 22 174 0.0 0.0 0.00 0.00 0.00 50 1007.9
20260506013207 22 215 0.0 0.0 0.00 0.00 0.00 50 1007.8
20260506012702 23 165 0.0 0.0 0.00 0.00 0.00 49 1007.8
20260506012149 23 342 0.0 0.0 0.00 0.00 0.00 47 1007.8
20260506011642 24 137 0.0 0.0 0.00 0.00 0.00 44 1007.7
20260506011137 25 222 0.0 0.0 0.00 0.00 0.00 41 1007.6
20260506010626 25 171 0.0 0.0 0.00 0.00 0.00 40 1007.5
20260506010121 25 213 0.0 0.0 0.00 0.00 0.00 39 1007.3
20260506005615 25 245 0.0 0.0 0.00 0.00 0.00 39 1007.2
20260506005105 25 143 0.0 0.0 0.00 0.00 0.00 39 1007.2
20260506004606 25 148 0.0 0.0 0.00 0.00 0.00 38 1007.1
20260506004405 25 221 0.0 0.0 0.00 0.00 0.00 38 1007.1
20260506003602 25 217 0.0 0.0 0.00 0.00 0.00 38 1007.1
20260506003103 25 181 0.0 0.0 0.00 0.00 0.00 38 1007.1
20260506002603 25 247 0.0 0.0 0.00 0.00 0.00 37 1007.0
20260506002104 25 235 0.0 0.0 0.00 0.00 0.00 37 1006.9
20260506001857 26 163 0.0 0.0 0.00 0.00 0.00 37 1006.9
20260506001357 26 240 0.0 0.0 0.00 0.00 0.00 35 1006.9
20260506000602 26 242 0.0 0.0 0.00 0.00 0.00 34 1006.9
20260506000105 26 193 0.0 0.0 0.00 0.00 0.00 33 1006.7
20260505235605 26 226 0.0 0.0 0.00 0.00 0.00 33 1006.7
20260505235106 26 217 0.0 0.0 0.00 0.00 0.00 32 1006.7
20260505234604 26 206 0.0 0.0 0.00 0.00 0.00 32 1006.6
20260505234105 26 281 0.0 0.0 0.00 0.00 0.00 32 1006.4
20260505233847 26 210 0.0 0.0 0.00 0.00 0.00 31 1006.5
20260505233340 26 244 0.0 0.0 0.00 0.00 0.00 30 1006.4
20260505232544 27 222 0.0 0.0 0.00 0.00 0.00 30 1006.5
20260505232033 27 193 0.0 0.0 0.00 0.00 0.00 30 1006.3
20260505231527 27 215 0.0 0.0 0.00 0.00 0.00 29 1006.2
20260505231027 27 203 0.0 0.0 0.00 0.00 0.00 29 1006.1
20260505230522 27 210 0.0 0.0 0.00 0.00 0.00 29 1006.1
20260505230022 27 230 0.0 0.0 0.00 0.00 0.00 28 1006.1
20260505225523 27 205 0.0 0.0 0.00 0.00 0.00 27 1006.0
20260505225020 27 198 0.0 0.0 0.00 0.00 0.00 27 1005.9
20260505224621 27 205 0.0 0.0 0.00 0.00 0.00 27 1005.8
20260505224556 27 213 0.0 0.0 0.00 0.00 0.00 27 1005.8
20260505223519 27 260 0.0 0.0 0.00 0.00 0.00 26 1005.8
20260505223322 27 200 0.0 0.0 0.00 0.00 0.00 27 1005.8
20260505222518 27 186 0.0 0.0 0.00 0.00 0.00 27 1005.7
20260505222319 27 117 0.0 0.0 0.00 0.00 0.00 27 1005.8
20260505221816 27 286 0.0 0.0 0.00 0.00 0.00 26 1005.8
20260505221020 27 180 0.0 0.0 0.00 0.00 0.00 27 1005.7
20260505220519 27 229 0.0 0.0 0.00 0.00 0.00 26 1005.7
20260505220014 28 200 0.0 0.0 0.00 0.00 0.00 27 1005.6
20260505215514 28 255 0.0 0.0 0.00 0.00 0.00 26 1005.4
20260505215015 28 201 0.0 0.0 0.00 0.00 0.00 27 1005.6
20260505214512 28 214 0.0 0.0 0.00 0.00 0.00 28 1005.3
20260505214307 28 220 0.0 0.0 0.00 0.00 0.00 28 1005.3
20260505213513 28 222 0.0 0.0 0.00 0.00 0.00 27 1005.4
20260505213011 28 232 0.0 0.0 0.00 0.00 0.00 27 1005.4
20260505212806 28 291 0.0 0.0 0.00 0.00 0.00 28 1005.3
20260505212010 28 195 0.0 0.0 0.00 0.00 0.00 27 1005.4
20260505211513 28 208 0.0 0.0 0.00 0.00 0.00 27 1005.2
20260505211009 28 219 0.0 0.0 0.00 0.00 0.00 27 1005.2
20260505210510 28 209 0.0 0.0 0.00 0.00 0.00 28 1005.2
20260505210009 28 230 0.0 0.0 0.00 0.00 0.00 27 1005.2
20260505205510 28 205 0.0 0.0 0.00 0.00 0.00 27 1005.3
20260505205011 28 224 0.0 0.0 0.00 0.00 0.00 27 1005.4
20260505204803 29 110 0.0 0.0 0.00 0.00 0.00 28 1005.2
20260505203958 29 128 0.0 0.0 0.00 0.00 0.00 29 1005.1
20260505203455 29 186 0.0 0.0 0.00 0.00 0.00 29 1005.2
20260505202952 29 244 0.0 0.0 0.00 0.00 0.00 28 1005.3
20260505202451 29 155 0.0 0.0 0.00 0.00 0.00 29 1005.1
20260505202252 28 65 0.0 0.0 0.00 0.00 0.00 29 1005.2
20260505201452 28 127 0.0 0.0 0.00 0.00 0.00 28 1005.2
20260505200951 28 232 0.0 0.0 0.00 0.00 0.00 28 1005.2
20260505200841 29 266 0.0 0.0 0.00 0.00 0.00 29 1005.4
20260505200527 29 307 0.0 0.0 0.00 0.00 0.00 28 1005.3
20260505195454 29 160 0.0 0.0 0.00 0.00 0.00 29 1005.4
20260505195251 28 233 0.0 0.0 0.00 0.00 0.00 29 1005.5
20260505194455 29 162 0.0 0.0 0.00 0.00 0.00 29 1005.6
20260505193953 28 290 0.0 0.0 0.00 0.00 0.00 29 1005.6
20260505193452 29 160 0.0 0.0 0.00 0.00 0.00 28 1005.8
20260505192947 28 171 0.0 0.0 0.00 0.00 0.00 29 1005.8
20260505192441 28 199 0.0 0.0 0.00 0.00 0.00 27 1006.2
20260505191936 28 148 0.0 0.0 0.00 0.00 0.00 28 1006.0
20260505191437 28 207 0.0 0.0 0.00 0.00 0.00 28 1006.0
20260505191236 28 174 0.0 0.0 0.00 0.00 0.00 29 1006.1
20260505190436 28 239 0.0 0.0 0.00 0.00 0.00 30 1006.2
20260505185936 28 207 0.0 0.0 0.00 0.00 0.00 31 1006.3
20260505185439 28 192 0.0 0.0 0.00 0.00 0.00 31 1006.5
20260505184936 28 225 0.0 0.0 0.00 0.00 0.00 32 1006.5
20260505184436 28 215 0.0 0.0 0.00 0.00 0.00 32 1006.7
20260505183936 28 150 0.0 0.0 0.00 0.00 0.00 32 1006.7
20260505183435 28 210 0.0 0.0 0.00 0.00 0.00 33 1006.8
20260505182937 28 229 0.0 0.0 0.00 0.00 0.00 32 1006.7
20260505182436 28 72 0.0 0.0 0.00 0.00 0.00 33 1006.8
20260505181936 28 84 0.0 0.0 0.00 0.00 0.00 33 1006.9
20260505181436 28 210 0.0 0.0 0.00 0.00 0.00 34 1006.8
20260505180936 28 246 0.0 0.0 0.00 0.00 0.00 34 1006.9
20260505180438 28 222 0.0 0.0 0.00 0.00 0.00 34 1006.8
20260505175936 28 167 0.0 0.0 0.00 0.00 0.00 34 1006.9
20260505175436 28 194 0.0 0.0 0.00 0.00 0.00 34 1006.9
20260505174936 28 220 0.0 0.0 0.00 0.00 0.00 36 1007.1
20260505174436 28 176 0.0 0.0 0.00 0.00 0.00 36 1007.1
20260505173936 28 174 0.0 0.0 0.00 0.00 0.00 36 1007.1
20260505173735 27 227 0.0 0.0 0.00 0.00 0.00 38 1007.0
20260505172926 27 247 0.0 0.0 0.00 0.00 0.00 36 1007.2
20260505172425 27 192 0.0 0.0 0.00 0.00 0.00 37 1007.2
20260505171925 27 214 0.0 0.0 0.00 0.00 0.00 36 1007.3
20260505171427 28 178 0.0 0.0 0.00 0.00 0.00 36 1007.3
20260505170926 28 283 0.0 0.0 0.00 0.00 0.00 36 1007.3
20260505170425 27 239 0.0 0.0 0.00 0.00 0.00 38 1007.4
20260505165925 27 146 0.0 0.0 0.00 0.00 0.00 38 1007.5
20260505165425 27 128 0.0 0.0 0.00 0.00 0.00 38 1007.5
20260505165222 27 80 0.0 0.0 0.00 0.00 0.00 39 1007.6
20260505164421 27 206 0.0 0.0 0.00 0.00 0.00 38 1007.7
20260505164216 27 144 0.0 0.0 0.00 0.00 0.00 39 1007.7
20260505163420 27 217 0.0 0.0 0.00 0.00 0.00 39 1007.9
20260505162921 26 200 0.0 0.0 0.00 0.00 0.00 40 1007.9
20260505162421 26 221 0.0 0.0 0.00 0.00 0.00 39 1007.9
20260505161919 26 184 0.0 0.0 0.00 0.00 0.00 39 1008.0
20260505161420 26 194 0.0 0.0 0.00 0.00 0.00 39 1008.1
20260505160920 26 269 0.0 0.0 0.00 0.00 0.00 41 1008.2
20260505160420 26 281 0.0 0.0 0.00 0.00 0.00 41 1008.2
20260505160216 26 180 0.0 0.0 0.00 0.00 0.00 41 1008.3
20260505152920 25 229 0.0 0.0 0.00 0.00 0.00 45 1008.5
20260505152419 25 85 0.0 0.0 0.00 0.00 0.00 44 1008.6
20260505151920 25 166 0.0 0.0 0.00 0.00 0.00 45 1008.8
20260505151419 24 205 0.0 0.0 0.00 0.00 0.00 45 1008.8
20260505150921 24 87 0.0 0.0 0.00 0.00 0.00 45 1008.9
20260505150418 24 87 0.0 0.0 0.00 0.00 0.00 45 1008.8